RH
61 58 61 69 64 60 49 38 30 42 48 48 50 58 64 60 81 100 90 61 64 68 63 66 62 51 56 49 56 71 100 100 79 44 58 52 31 28 20 18 12 4 3 3 2
49 58 58 60 74 78 73 58 58 57 67 73 80 78 82 74 95 98 63 62 76 83 79 65 54 60 64 48 83 98 100 99 48 66 66 40 31 26 21 17 9 5 3 2 2
28 40 40 61 71 71 70 68 74 68 75 75 86 86 80 76 100 93 73 90 98 97 73 61 65 62 60 69 84 100 100 57 61 74 54 35 27 21 21 14 6 4 3 2 2
21 27 35 49 76 88 91 78 65 74 79 82 85 84 93 100 96 87 100 100 98 79 66 74 81 84 70 67 95 90 72 58 76 55 44 32 29 24 24 8 6 4 3 2 1
20 21 25 38 68 83 94 98 83 70 80 100 99 100 100 100 96 88 96 75 68 66 68 93 100 79 68 93 85 75 72 56 87 45 35 32 27 31 17 7 5 4 2 2 2
26 21 24 32 44 74 88 99 96 84 80 95 100 100 100 100 94 90 87 85 81 81 91 92 90 81 78 95 82 77 61 75 59 43 34 29 31 25 12 6 5 2 2 2 2
37 33 24 29 33 56 85 100 94 77 85 90 100 100 100 100 100 100 100 99 100 100 96 85 84 89 89 95 84 68 88 56 52 38 42 28 30 21 10 5 4 2 3 2 2
34 37 33 22 28 52 90 87 100 100 100 94 100 97 99 100 86 91 100 100 100 100 96 98 100 97 98 85 68 95 65 47 52 49 42 33 25 18 10 5 3 3 3 2 2
32 33 32 45 25 32 76 100 98 100 100 100 100 100 85 82 97 100 100 94 98 98 100 99 100 100 78 74 78 78 52 52 66 64 39 31 24 16 8 5 3 3 3 2 2
31 28 33 43 30 32 68 100 96 100 100 100 100 90 84 90 100 100 89 100 93 98 100 93 97 86 85 75 87 80 52 63 66 60 49 24 22 14 7 5 2 3 3 2 2
34 39 31 34 46 34 88 100 95 100 100 100 100 100 100 77 98 88 85 100 100 100 100 100 99 71 70 78 96 81 65 83 70 63 54 26 21 13 7 4 2 3 3 2 2
32 36 27 25 53 41 63 100 100 100 100 100 100 100 100 100 78 85 98 100 100 100 100 99 80 79 67 64 80 85 95 88 76 72 44 27 19 12 7 4 4 3 3 3 2
27 32 20 21 63 48 54 100 100 100 100 100 100 97 98 100 100 100 81 93 99 100 100 94 81 72 71 94 96 94 95 86 80 55 40 23 22 10 6 4 3 3 3 2 2
22 24 14 16 73 44 68 100 100 100 100 100 100 100 100 100 100 95 78 79 83 87 100 82 80 82 93 100 100 99 91 90 72 58 32 21 23 10 7 4 4 4 3 2 3
14 18 13 21 69 40 53 100 100 100 100 100 100 100 100 100 97 100 79 78 78 88 100 98 98 100 98 100 100 100 100 86 68 50 25 24 21 11 7 3 4 4 3 2 3
14 14 13 31 58 32 42 100 100 100 100 100 100 100 95 83 92 95 85 99 97 78 91 88 80 85 100 100 100 100 96 78 64 36 25 23 19 12 8 4 4 4 4 3 3
13 12 14 35 43 22 42 78 100 100 100 100 100 100 100 100 100 97 100 100 100 92 93 77 100 100 100 100 100 100 92 75 48 30 26 25 20 12 8 4 4 5 4 3 3
12 12 16 34 26 18 36 65 100 100 100 100 100 100 100 100 100 100 100 100 100 78 100 100 100 100 100 100 100 98 83 62 34 32 36 32 21 13 9 4 4 5 4 4 4
13 13 16 25 17 15 19 47 99 100 100 100 100 100 100 100 100 100 100 99 100 100 100 100 100 100 100 100 100 94 70 48 35 41 37 30 23 13 10 6 4 5 5 4 4
12 12 15 19 14 14 16 38 76 100 100 100 100 100 100 100 100 100 100 100 100 100 100 100 100 100 100 100 100 85 55 40 39 41 42 39 23 16 10 7 4 6 6 5 5
13 12 16 17 14 17 18 26 44 84 100 100 100 100 100 100 100 100 100 100 100 100 100 100 98 100 100 100 96 66 47 45 46 51 36 40 25 18 11 9 5 5 6 6 6
14 14 20 20 15 24 27 31 31 41 53 77 89 96 98 100 100 100 100 100 98 99 100 100 100 100 100 100 81 59 49 56 61 50 39 36 28 18 12 10 5 5 7 6 7
18 20 24 20 18 19 29 44 45 48 52 50 47 44 49 60 94 100 100 93 87 100 86 100 100 100 100 99 70 61 51 72 74 49 43 34 27 19 14 11 6 5 8 6 8
19 17 26 30 34 28 40 58 56 46 44 43 44 45 48 48 100 100 96 82 100 100 77 100 100 98 100 86 71 76 77 90 67 55 47 39 28 18 13 10 7 5 8 6 9
17 25 38 40 50 40 50 64 68 57 50 47 55 51 48 54 64 82 90 100 100 96 83 100 88 94 100 86 83 78 80 85 74 62 52 40 30 20 14 11 8 4 7 7 9
25 40 47 45 48 58 70 65 56 69 64 59 57 59 71 81 87 100 100 100 100 94 100 100 97 97 100 90 99 93 99 78 75 57 48 45 32 20 14 11 8 4 6 9 10
30 57 68 64 69 69 84 63 73 77 77 71 71 82 86 86 100 100 100 100 100 97 100 100 100 100 100 98 100 99 88 92 68 54 53 41 33 17 13 10 8 5 5 9 10
Wind_Speed
60 58 56 53 51 49 46 43 40 40 41 40 39 37 38 38 34 41 43 45 47 50 54 56 58 62 64 65 68 72 71 77 80 91 96 101 104 115 114 116 107 98 87 71 64
65 63 61 58 54 53 50 45 40 37 39 39 39 39 39 39 39 45 46 46 53 55 56 58 59 62 63 68 69 71 75 81 90 94 99 107 109 118 121 115 105 96 81 58 55
73 69 67 63 62 58 54 48 43 40 40 39 41 43 43 43 44 46 47 52 54 54 58 59 62 63 66 68 69 73 79 89 93 96 103 111 110 122 123 112 102 81 76 57 43
67 74 74 70 67 64 61 57 49 46 45 44 45 46 48 46 48 47 49 50 54 59 60 61 62 62 68 69 71 75 84 92 96 100 109 114 117 129 127 102 82 70 67 54 35
68 69 71 77 74 70 66 62 60 55 50 49 48 46 47 48 46 44 48 54 57 59 59 63 59 66 71 68 75 81 87 93 98 105 111 112 123 128 117 98 78 66 50 44 36
75 72 67 68 75 75 69 67 64 63 58 53 53 51 49 47 51 52 54 56 59 60 61 61 66 69 69 72 78 84 90 93 100 104 113 119 125 122 106 90 75 59 42 36 33
70 75 75 69 72 75 73 64 64 65 63 62 58 57 50 49 50 55 56 59 59 60 64 69 71 69 69 73 80 87 89 96 100 107 114 123 123 115 101 81 65 47 39 33 28
73 78 76 77 70 74 70 70 55 63 68 66 62 62 60 55 58 59 62 61 64 64 66 67 67 69 69 75 82 84 90 96 104 107 115 124 121 107 99 75 57 42 35 28 22
78 73 77 72 75 73 70 68 70 68 67 62 63 61 63 61 59 56 57 62 61 64 66 70 66 68 75 77 83 85 94 101 101 109 118 120 113 97 92 72 49 38 31 25 18
78 81 70 71 72 71 72 66 68 69 66 66 61 65 63 61 55 59 63 61 64 63 69 70 68 74 72 78 81 87 93 100 102 110 119 116 109 96 85 67 42 33 29 20 12
65 63 63 67 66 68 72 72 68 55 63 66 69 68 64 66 60 62 64 58 62 69 74 68 69 72 73 78 81 88 95 99 103 109 118 116 103 90 80 61 42 30 22 15 8
62 62 61 62 68 64 66 75 68 57 61 64 69 69 61 65 66 62 61 65 68 68 66 65 69 74 74 77 81 88 91 98 103 106 112 113 94 87 72 55 37 31 19 7 7
61 61 58 59 63 63 61 60 63 66 62 63 65 69 65 65 61 62 64 66 61 64 64 65 69 71 74 78 82 86 88 91 95 105 109 102 94 82 66 47 29 23 13 2 13
63 58 55 54 62 58 59 60 59 58 60 62 66 59 68 71 67 65 64 60 62 62 64 68 70 72 74 77 82 84 86 88 96 99 105 92 92 77 63 41 29 19 6 8 22
65 55 54 50 59 56 57 62 59 60 66 70 71 69 69 64 63 57 63 60 61 61 64 68 66 70 74 77 80 79 81 86 94 99 98 92 85 72 61 40 23 13 2 14 30
62 54 52 51 54 56 57 61 63 67 71 68 64 69 69 65 59 63 61 60 60 60 64 68 68 72 73 71 73 76 78 86 89 95 92 86 78 68 55 40 23 9 4 18 34
58 55 50 51 52 51 56 65 62 63 66 67 68 66 67 63 64 63 62 61 63 61 64 64 63 68 71 64 68 72 77 81 89 90 90 87 79 65 52 35 19 5 9 20 39
57 54 48 50 50 50 54 61 61 60 63 63 65 68 66 66 65 62 64 63 65 64 64 62 67 63 61 61 64 69 75 80 87 86 88 87 79 68 46 33 15 3 14 27 48
55 52 48 48 48 49 48 55 61 65 65 63 65 67 64 66 69 65 64 68 65 64 63 56 56 58 59 61 63 68 74 81 81 82 85 83 78 69 45 31 11 4 18 32 58
55 50 48 48 48 49 48 50 55 66 70 70 70 67 66 69 67 68 71 65 63 63 62 50 52 55 56 57 63 66 73 78 81 82 85 86 76 68 48 32 11 7 22 39 64
55 49 50 49 44 48 47 48 53 60 68 70 68 68 69 74 73 68 68 67 64 53 45 47 46 52 55 56 62 66 72 73 79 80 81 82 77 70 38 32 12 10 27 45 71
55 49 50 49 44 46 45 44 48 54 58 66 66 68 71 68 65 63 58 64 56 44 40 42 46 49 51 53 59 63 68 71 76 81 79 79 76 66 40 29 13 13 32 51 80
54 51 53 51 46 47 45 42 42 47 52 54 55 58 59 58 58 56 55 50 42 37 37 41 47 47 48 54 59 61 65 69 73 80 80 80 75 68 52 25 14 16 35 56 86
54 53 53 49 46 45 44 41 42 44 47 48 51 53 54 54 53 53 58 41 33 37 39 43 44 48 50 53 54 57 62 65 71 78 80 77 77 68 51 26 14 18 37 58 86
53 51 51 47 45 43 43 42 42 44 45 45 49 50 51 51 51 49 44 36 35 38 41 39 41 46 47 49 53 57 63 65 70 77 79 75 74 67 55 25 15 20 38 59 86
53 48 50 47 44 43 42 43 42 45 46 45 45 46 48 45 44 40 37 38 39 40 39 38 40 46 46 48 51 55 58 64 71 76 76 74 74 68 51 26 14 20 39 57 86
51 49 48 47 44 42 43 43 42 45 45 44 44 44 43 43 40 37 38 39 39 41 39 40 41 45 45 47 51 53 60 63 71 72 71 73 73 67 50 26 13 19 39 55 87
Wind_Direction
276 275 275 278 282 284 285 285 286 288 292 293 296 297 303 306 305 298 297 300 304 305 306 310 312 314 316 319 319 321 318 312 312 318 322 321 323 325 323 322 309 307 306 302 290
273 273 274 274 275 279 283 281 283 280 283 290 292 294 297 300 299 295 296 299 302 305 309 310 311 314 315 318 318 319 313 310 318 322 321 322 322 325 326 321 314 312 305 301 286
273 269 270 271 273 274 276 278 276 277 278 282 283 288 291 296 297 294 298 300 302 304 308 312 313 313 313 318 317 316 313 318 321 323 321 323 324 327 330 323 317 313 309 305 286
277 268 267 266 269 272 274 275 271 273 275 276 280 285 290 293 291 294 297 300 302 306 308 311 313 312 317 317 315 318 317 320 322 323 324 327 325 329 329 318 322 315 309 304 286
277 275 267 262 264 267 269 273 273 272 273 276 280 285 290 294 294 295 295 300 303 306 308 312 311 313 316 316 317 319 320 323 321 324 327 327 327 331 328 324 324 316 308 300 293
280 280 274 263 261 263 266 270 273 274 273 275 281 285 290 287 292 298 299 302 304 307 309 310 310 314 316 317 319 319 322 323 323 325 327 330 332 333 329 329 326 318 308 303 292
276 275 273 273 259 259 261 268 276 273 273 276 280 282 281 279 288 294 298 303 305 304 304 309 311 312 313 316 317 320 322 324 322 326 328 331 335 335 330 332 327 321 314 309 287
271 274 273 274 269 257 258 260 258 269 274 275 278 279 278 281 287 292 296 301 301 301 303 308 309 311 314 316 320 319 321 324 325 327 329 334 338 333 330 335 330 326 320 302 277
269 272 270 269 272 267 258 257 258 262 269 273 279 272 277 285 290 292 293 300 300 301 303 307 308 312 314 318 319 320 324 325 325 326 331 333 339 334 333 337 333 331 318 300 271
272 275 271 265 267 266 257 253 257 266 267 270 266 273 279 283 287 285 291 299 299 300 303 308 308 311 313 319 319 320 323 324 324 327 331 334 340 336 333 338 337 334 315 303 267
278 273 273 265 261 261 251 251 259 250 261 268 271 274 281 282 282 287 297 294 294 295 302 305 308 314 313 320 318 321 322 323 324 329 331 335 341 338 336 339 338 343 317 307 256
280 276 271 263 258 256 251 251 252 250 256 258 267 269 268 276 284 289 293 292 293 296 301 303 308 315 314 316 316 319 322 323 326 329 331 336 341 341 339 339 341 336 327 311 203
286 277 271 263 258 257 247 248 250 247 252 261 263 269 268 278 283 286 292 290 294 290 300 303 311 312 313 314 316 321 322 324 325 328 332 339 345 342 339 339 345 338 331 261 157
287 278 273 264 259 255 242 245 249 250 257 252 257 264 271 272 279 284 290 290 294 299 299 308 308 312 312 314 316 318 321 324 326 330 333 341 348 343 339 346 344 340 346 167 155
287 277 272 263 256 253 242 243 245 239 240 247 258 261 271 271 277 278 288 287 298 301 300 304 307 311 311 312 316 317 321 322 327 331 332 344 350 345 341 346 351 349 24 168 159
282 276 269 262 256 249 245 239 244 243 246 252 260 264 262 272 272 281 283 282 295 300 298 303 305 308 311 313 314 317 321 326 329 329 336 346 352 346 343 346 350 348 144 167 158
278 274 267 262 256 250 241 238 240 246 250 255 259 259 262 267 268 280 274 282 291 296 302 304 302 309 313 311 314 318 324 325 327 332 339 346 353 349 346 347 350 325 156 163 156
273 271 265 259 255 249 241 240 241 244 249 249 250 257 260 263 267 273 275 280 289 294 299 301 304 310 313 311 313 318 321 324 329 336 340 345 353 350 347 352 352 272 160 163 159
267 267 263 259 252 251 248 240 240 238 241 243 249 253 257 261 267 272 271 281 284 288 294 299 303 308 308 309 312 319 322 324 329 335 340 345 354 352 352 352 348 215 163 165 160
263 263 261 257 253 251 249 241 239 237 242 246 248 250 259 262 265 265 271 277 282 285 291 297 304 304 305 308 314 320 321 326 330 334 340 342 352 356 353 349 339 192 171 169 164
258 258 257 256 254 254 252 246 242 241 241 244 248 250 256 262 267 271 273 277 286 285 289 294 300 297 304 308 313 317 321 327 330 334 339 341 350 356 360 343 329 184 175 174 170
254 254 255 256 253 254 255 249 247 247 249 251 254 257 260 264 271 268 273 277 283 282 289 294 292 297 304 308 315 319 324 327 329 333 337 340 346 354 355 344 323 184 180 177 171
251 250 252 255 255 254 255 251 249 250 252 252 254 256 260 262 262 261 271 274 276 285 284 290 289 299 304 310 314 320 324 326 327 333 336 341 344 352 353 350 315 194 186 180 174
249 250 252 253 255 255 254 253 251 253 251 252 253 255 257 260 258 261 264 266 278 281 282 289 295 301 301 308 316 320 322 324 327 332 334 340 344 352 351 345 316 207 189 185 181
249 249 251 252 253 252 252 253 253 254 253 251 253 255 257 257 256 257 262 266 279 283 280 289 297 299 303 310 317 319 320 322 326 331 334 337 343 349 348 345 321 214 195 188 184
247 245 247 248 248 249 250 250 248 250 250 251 253 255 256 256 256 263 261 263 279 282 282 293 298 300 302 312 314 316 319 323 328 330 332 335 342 347 345 346 316 226 200 192 186
242 240 240 244 243 244 246 248 247 249 251 252 253 254 256 256 260 264 265 271 277 279 280 291 296 300 303 311 313 317 320 323 327 328 330 334 339 344 346 345 322 231 203 197 188